Tracking 25370 objects as of 25-Jan-2022
HD Live streaming from Space Station
objects crossing your sky now

STARLINK-2092

Track STARLINK-2092 now!
10-day predictions
STARLINK-2092 is classified as:


NORAD ID: 47373
Int'l Code: 2021-005AA
Perigee: 553.0 km
Apogee: 555.7 km
Inclination: 53.1 °
Period: 95.6 minutes
Semi major axis: 6925 km
RCS: Unknown
Launch date: January 20, 2021
Source: United States (US)
Launch site: AIR FORCE EASTERN TEST RANGE (AFETR)
aabbcc
Your satellite tracking list
Your tracking list is empty




NASA's NSSDC Master Catalog

Two Line Element Set (TLE):
1 47373U 21005AA  22025.14369270 -.00001736  00000-0 -97664-4 0  9990
2 47373  53.0548 335.7797 0001970  57.1807 302.9372 15.06395655 56278
Source of the keplerian elements: AFSPC